When you browse on this site, cookies collect data to enhance your experience and personalize the content and advertising you see.
Visit our Privacy Policy to learn more. By continuing to use the site, you agree to this use of cookies and data.
  • In United Kingdom
  • List of Countries
  • For 7 days
  • Water Temperature
  • Weather Map
  • Weather Widgets
  • user-avatar
    Login

    Hourly Weather Wiktoria

    Today, 18 August, Sunday

    Time Temperature Precipitation Wind Pressure Humidity
    00:00 +5°C° 0 mm 3 mps 750 mmHg 92%
    01:00 +5°C° 0 mm 3 mps 750 mmHg 93%
    02:00 +5°C° 0 mm 4 mps 749 mmHg 91%
    03:00 +5°C° 0 mm 4 mps 749 mmHg 90%
    04:00 +5°C° 0 mm 4 mps 748 mmHg 88%
    05:00 +5°C° 0 mm 5 mps 748 mmHg 86%
    06:00 +5°C° 0 mm 6 mps 747 mmHg 84%
    07:00 +5°C° 0 mm 7 mps 747 mmHg 82%
    08:00 +6°C° 0 mm 7 mps 746 mmHg 79%
    09:00 +9°C° 0 mm 7 mps 745 mmHg 76%
    10:00 +10°C° 0 mm 7 mps 745 mmHg 71%
    11:00 +12°C° 0 mm 7 mps 744 mmHg 68%
    12:00 +15°C° 0 mm 7 mps 743 mmHg 66%
    13:00 +17°C° 0 mm 7 mps 742 mmHg 63%
    14:00 +15°C° 0.2 mm 8 mps 742 mmHg 71%
    15:00 +11°C° 0.2 mm 8 mps 742 mmHg 79%
    16:00 +8°C° 0 mm 10 mps 742 mmHg 81%
    17:00 +7°C° 0.6 mm 8 mps 743 mmHg 86%
    18:00 +6°C° 0.6 mm 7 mps 744 mmHg 90%
    19:00 +6°C° 0.6 mm 5 mps 745 mmHg 94%
    20:00 +5°C° 0 mm 5 mps 745 mmHg 94%
    21:00 +5°C° 0 mm 5 mps 746 mmHg 94%
    22:00 +3°C° 0 mm 6 mps 746 mmHg 93%
    23:00 +3°C° 0 mm 5 mps 747 mmHg 93%

    Tomorrow, 19 August, Monday

    Time Temperature Precipitation Wind Pressure Humidity
    00:00 +3°C° 0 mm 5 mps 747 mmHg 93%
    01:00 +3°C° 0 mm 5 mps 747 mmHg 93%
    02:00 +2°C° 0 mm 5 mps 748 mmHg 93%
    03:00 +3°C° 0 mm 4 mps 748 mmHg 93%
    04:00 +3°C° 0 mm 4 mps 749 mmHg 93%
    05:00 +1°C° 0 mm 4 mps 749 mmHg 94%
    06:00 +1°C° 0 mm 3 mps 750 mmHg 94%
    07:00 0°C° 0 mm 3 mps 751 mmHg 95%
    08:00 +1°C° 0 mm 4 mps 751 mmHg 88%
    09:00 +3°C° 0 mm 5 mps 752 mmHg 82%
    10:00 +5°C° 0 mm 6 mps 753 mmHg 75%
    11:00 +7°C° 0.1 mm 6 mps 753 mmHg 70%
    12:00 +8°C° 0.1 mm 7 mps 753 mmHg 66%
    13:00 +9°C° 0.1 mm 7 mps 753 mmHg 61%
    14:00 +9°C° 0.1 mm 7 mps 754 mmHg 63%
    15:00 +9°C° 0.1 mm 6 mps 754 mmHg 66%
    16:00 +9°C° 0.1 mm 6 mps 754 mmHg 69%
    17:00 +8°C° 0 mm 5 mps 755 mmHg 73%
    18:00 +6°C° 0 mm 4 mps 755 mmHg 78%
    19:00 +5°C° 0 mm 4 mps 756 mmHg 82%
    20:00 +4°C° 0 mm 3 mps 756 mmHg 86%
    21:00 +3°C° 0 mm 3 mps 757 mmHg 89%
    22:00 +3°C° 0 mm 2 mps 757 mmHg 93%
    23:00 +3°C° 0 mm 2 mps 757 mmHg 93%

    Day after tomorrow, 20 August, Tuesday

    Time Temperature Precipitation Wind Pressure Humidity
    00:00 +3°C° 0 mm 2 mps 757 mmHg 94%
    01:00 +2°C° 0 mm 2 mps 757 mmHg 95%
    02:00 +2°C° 0 mm 2 mps 757 mmHg 95%
    03:00 +2°C° 0 mm 2 mps 757 mmHg 96%
    04:00 +2°C° 0 mm 2 mps 756 mmHg 97%
    05:00 +2°C° 0 mm 2 mps 757 mmHg 97%
    06:00 +2°C° 0 mm 2 mps 757 mmHg 97%
    07:00 +2°C° 0 mm 2 mps 757 mmHg 97%
    08:00 +3°C° 0 mm 3 mps 757 mmHg 93%
    09:00 +5°C° 0 mm 3 mps 757 mmHg 89%
    10:00 +7°C° 0 mm 4 mps 757 mmHg 85%
    11:00 +8°C° 0 mm 4 mps 757 mmHg 83%
    12:00 +9°C° 0 mm 5 mps 756 mmHg 81%
    13:00 +9°C° 0 mm 5 mps 756 mmHg 79%
    14:00 +10°C° 0 mm 5 mps 755 mmHg 80%
    15:00 +10°C° 0 mm 5 mps 755 mmHg 81%
    16:00 +10°C° 0 mm 5 mps 754 mmHg 81%
    17:00 +10°C° 0 mm 5 mps 754 mmHg 81%
    18:00 +10°C° 0 mm 5 mps 754 mmHg 80%
    19:00 +10°C° 0 mm 5 mps 754 mmHg 80%
    20:00 +10°C° 0 mm 6 mps 754 mmHg 80%
    21:00 +9°C° 0 mm 6 mps 754 mmHg 79%
    22:00 +9°C° 0 mm 6 mps 754 mmHg 79%
    23:00 +9°C° 0 mm 6 mps 753 mmHg 79%

    21 August, Wednesday

    Time Temperature Precipitation Wind Pressure Humidity
    00:00 +9°C° 0 mm 6 mps 753 mmHg 79%
    01:00 +9°C° 0 mm 6 mps 753 mmHg 79%
    02:00 +9°C° 0 mm 6 mps 752 mmHg 79%
    03:00 +9°C° 0 mm 7 mps 751 mmHg 80%
    04:00 +9°C° 0 mm 7 mps 751 mmHg 80%
    05:00 +9°C° 0 mm 7 mps 751 mmHg 80%
    06:00 +9°C° 0 mm 7 mps 751 mmHg 81%
    07:00 +9°C° 0 mm 7 mps 751 mmHg 82%
    08:00 +9°C° 0.2 mm 6 mps 751 mmHg 83%
    09:00 +9°C° 0.2 mm 6 mps 752 mmHg 85%
    10:00 +9°C° 0.2 mm 6 mps 752 mmHg 86%
    11:00 +11°C° 0 mm 7 mps 752 mmHg 76%
    12:00 +12°C° 0 mm 8 mps 752 mmHg 66%
    13:00 +13°C° 0 mm 9 mps 752 mmHg 56%
    14:00 +12°C° 0 mm 8 mps 752 mmHg 59%
    15:00 +12°C° 0 mm 7 mps 752 mmHg 62%
    16:00 +11°C° 0 mm 7 mps 752 mmHg 64%
    17:00 +10°C° 0 mm 6 mps 752 mmHg 67%
    18:00 +8°C° 0 mm 5 mps 753 mmHg 69%
    19:00 +6°C° 0 mm 4 mps 753 mmHg 71%
    20:00 +6°C° 0 mm 4 mps 754 mmHg 75%
    21:00 +5°C° 0 mm 4 mps 754 mmHg 79%
    22:00 +4°C° 0 mm 4 mps 754 mmHg 83%
    23:00 +4°C° 0 mm 4 mps 754 mmHg 86%

    22 August, Thursday

    Time Temperature Precipitation Wind Pressure Humidity
    00:00 +3°C° 0 mm 3 mps 754 mmHg 89%
    01:00 +3°C° 0 mm 3 mps 754 mmHg 92%
    02:00 +3°C° 0 mm 3 mps 754 mmHg 91%
    03:00 +4°C° 0 mm 3 mps 754 mmHg 90%
    04:00 +4°C° 0 mm 3 mps 754 mmHg 88%
    05:00 +5°C° 0 mm 3 mps 754 mmHg 88%
    06:00 +5°C° 0 mm 3 mps 754 mmHg 87%
    07:00 +7°C° 0 mm 3 mps 754 mmHg 86%
    08:00 +7°C° 0 mm 4 mps 754 mmHg 84%
    09:00 +9°C° 0 mm 5 mps 755 mmHg 82%
    10:00 +11°C° 0 mm 6 mps 755 mmHg 79%
    11:00 +11°C° 0.1 mm 6 mps 755 mmHg 77%
    12:00 +11°C° 0.1 mm 6 mps 755 mmHg 75%
    13:00 +13°C° 0.1 mm 6 mps 754 mmHg 73%
    14:00 +13°C° 0 mm 6 mps 754 mmHg 73%
    15:00 +13°C° 0 mm 5 mps 754 mmHg 74%
    16:00 +12°C° 0 mm 5 mps 754 mmHg 74%
    17:00 +11°C° 0 mm 4 mps 755 mmHg 77%
    18:00 +10°C° 0 mm 4 mps 755 mmHg 80%
    19:00 +9°C° 0 mm 3 mps 756 mmHg 83%
    20:00 +8°C° 0 mm 3 mps 756 mmHg 86%
    21:00 +7°C° 0 mm 3 mps 756 mmHg 89%
    22:00 +5°C° 0 mm 3 mps 757 mmHg 93%
    23:00 +5°C° 0 mm 3 mps 756 mmHg 93%

    23 August, Friday

    Time Temperature Precipitation Wind Pressure Humidity
    00:00 +4°C° 0 mm 3 mps 756 mmHg 94%
    01:00 +4°C° 0 mm 3 mps 756 mmHg 94%
    02:00 +5°C° 0 mm 2 mps 756 mmHg 94%
    03:00 +4°C° 0 mm 2 mps 756 mmHg 94%
    04:00 +4°C° 0 mm 2 mps 756 mmHg 93%
    05:00 +5°C° 0 mm 1 mps 756 mmHg 93%
    06:00 +4°C° 0 mm 1 mps 756 mmHg 93%
    07:00 +3°C° 0 mm 0 mps 756 mmHg 93%
    08:00 +6°C° 0 mm 1 mps 756 mmHg 88%
    09:00 +8°C° 0 mm 1 mps 756 mmHg 84%
    10:00 +10°C° 0 mm 1 mps 756 mmHg 79%
    11:00 +12°C° 0 mm 1 mps 755 mmHg 75%
    12:00 +13°C° 0 mm 2 mps 754 mmHg 70%
    13:00 +13°C° 0 mm 3 mps 753 mmHg 66%
    14:00 +13°C° 0 mm 3 mps 753 mmHg 68%
    15:00 +13°C° 0 mm 3 mps 752 mmHg 69%
    16:00 +13°C° 0 mm 3 mps 752 mmHg 71%
    17:00 +12°C° 0 mm 3 mps 752 mmHg 74%
    18:00 +11°C° 0 mm 3 mps 752 mmHg 76%
    19:00 +10°C° 0 mm 3 mps 752 mmHg 79%
    20:00 +10°C° 0 mm 3 mps 752 mmHg 76%
    21:00 +10°C° 0 mm 3 mps 752 mmHg 73%
    22:00 +10°C° 0 mm 4 mps 751 mmHg 71%
    23:00 +10°C° 0 mm 4 mps 751 mmHg 69%
    Show more